Memphis, TN

8:26 AM CST on December 04, 2016 (GMT -0600)
Memphis International

Weather History for KMEM - June, 2014

Change the Weather History Date:

Monday, June 16, 2014

  Actual Average Record
Temperature  
Mean Temperature 82 °F 80 °F  
Max Temperature 90 °F 89 °F 98 °F (1952)
Min Temperature 73 °F 71 °F 51 °F (1917)
Degree Days  
Heating Degree Days 0 0  
Month to date heating degree days 0 0  
Since 1 June heating degree days 0 0  
Since 1 July heating degree days 3484 2964  
Cooling Degree Days 17 15  
Month to date cooling degree days 210 212  
Year to date cooling degree days 521 533  
Since 1 June cooling degree days 210 212  
Growing Degree Days 32 (Base 50)    
Moisture  
Dew Point 70 °F    
Average Humidity 71    
Maximum Humidity 87    
Minimum Humidity 55    
Precipitation  
Precipitation 0.00 in 0.12 in 1.69 in (1982)
Month to date precipitation 4.34 2.03  
Year to date precipitation 30.30 26.31  
Snow  
Snow 0.00 in 0.00 in - ()
Month to date snowfall 0.0 0.0  
Since 1 June snowfall 0.0 0.0  
Since 1 July snowfall 0.8 3.8  
Snow Depth 0.00 in    
Sea Level Pressure  
Sea Level Pressure 30.08 in    
Wind  
Wind Speed 8 mph (South)    
Max Wind Speed 15 mph    
Max Gust Speed 20 mph    
Visibility 10 miles    
Events      
T = Trace of Precipitation, MM = Missing Value Source: NWS Daily Summary

Daily Weather History Graph

Daily Weather History Graph

Search for Another Location

Airport or City:

Trip Planner

Search our weather history database for the weather conditions in past years. The results will help you decide how hot, cold, wet, or windy it might be!

Date:

Astronomy

Jun. 16, 2014 Rise Set
Actual Time 5:45 AM CDT 8:16 PM CDT
Civil Twilight 5:15 AM CDT 8:45 PM CDT
Nautical Twilight 4:38 AM CDT 9:22 PM CDT
Astronomical Twilight 3:58 AM CDT 10:03 PM CDT
Moon 11:16 PM CDT (6/16) 9:41 AM CDT (6/16)
Length of Visible Light 15h 30m
Length of Day
14h 30m
Waning Gibbous, 83% of the Moon is Illuminated
Jun 16
Waning Gibbous
Jun 19
Last Quarter
Jun 27
New
Jul 5
First Quarter
Jul 12
Full

Hourly Weather History & Observations

Time (CDT) Temp. Heat Index Dew Point Humidity Pressure Visibility Wind Dir Wind Speed Gust Speed Precip Events Conditions
12:54 AM 75.0 °F - 69.1 °F 82% 30.07 in 10.0 mi South 4.6 mph - N/A   Partly Cloudy
1:54 AM 73.9 °F - 69.1 °F 85% 30.07 in 10.0 mi South 4.6 mph - N/A   Partly Cloudy
2:54 AM 73.9 °F - 68.0 °F 82% 30.07 in 10.0 mi South 4.6 mph - N/A   Clear
3:54 AM 75.0 °F - 69.1 °F 82% 30.07 in 10.0 mi South 4.6 mph - N/A   Scattered Clouds
4:54 AM 73.9 °F - 69.1 °F 85% 30.09 in 10.0 mi South 5.8 mph - N/A   Scattered Clouds
5:54 AM 73.9 °F - 69.1 °F 85% 30.11 in 10.0 mi South 6.9 mph - N/A   Scattered Clouds
6:54 AM 75.9 °F - 70.0 °F 82% 30.12 in 10.0 mi South 8.1 mph - N/A   Scattered Clouds
7:54 AM 77.0 °F - 70.0 °F 79% 30.13 in 10.0 mi South 6.9 mph - N/A   Scattered Clouds
8:54 AM 82.0 °F 86.7 °F 72.0 °F 71% 30.15 in 10.0 mi South 6.9 mph - N/A   Partly Cloudy
9:54 AM 82.9 °F 88.0 °F 72.0 °F 69% 30.14 in 10.0 mi South 6.9 mph - N/A   Partly Cloudy
10:54 AM 84.9 °F 90.1 °F 71.1 °F 63% 30.13 in 9.0 mi South 10.4 mph - N/A   Partly Cloudy
11:54 AM 87.1 °F 92.0 °F 70.0 °F 57% 30.12 in 10.0 mi South 10.4 mph - N/A   Partly Cloudy
12:54 PM 88.0 °F 93.8 °F 71.1 °F 57% 30.11 in 10.0 mi South 11.5 mph - N/A   Partly Cloudy
1:54 PM 86.0 °F 90.1 °F 69.1 °F 57% 30.10 in 10.0 mi South 9.2 mph - N/A   Scattered Clouds
2:54 PM 89.1 °F 95.0 °F 71.1 °F 55% 30.08 in 10.0 mi SSW 10.4 mph - N/A   Scattered Clouds
3:54 PM 89.1 °F 95.0 °F 71.1 °F 55% 30.07 in 10.0 mi SSW 11.5 mph 18.4 mph N/A   Partly Cloudy
4:54 PM 88.0 °F 92.9 °F 70.0 °F 55% 30.05 in 10.0 mi South 9.2 mph 19.6 mph N/A   Scattered Clouds
5:54 PM 88.0 °F 92.1 °F 69.1 °F 53% 30.04 in 10.0 mi SW 10.4 mph - N/A   Partly Cloudy
6:54 PM 86.0 °F 90.1 °F 69.1 °F 57% 30.04 in 10.0 mi South 8.1 mph - N/A   Partly Cloudy
7:54 PM 84.9 °F 88.2 °F 68.0 °F 57% 30.04 in 10.0 mi South 8.1 mph - N/A   Clear
8:54 PM 82.0 °F 85.5 °F 69.1 °F 65% 30.04 in 10.0 mi South 6.9 mph - N/A   Clear
9:54 PM 81.0 °F 84.9 °F 71.1 °F 72% 30.05 in 10.0 mi South 6.9 mph - N/A   Clear
10:54 PM 80.1 °F 83.6 °F 71.1 °F 74% 30.06 in 10.0 mi South 6.9 mph - N/A   Clear
11:54 PM 80.1 °F 83.6 °F 71.1 °F 74% 30.06 in 10.0 mi South 8.1 mph - N/A   Partly Cloudy